Time,TemperatureF,DewpointF,PressureIn,WindDirection,WindDirectionDegrees,WindSpeedMPH,WindSpeedGustMPH,Humidity,HourlyPrecipIn,Conditions,Clouds,dailyrainin,SoftwareType,DateUTC
2013-09-11 00:11:00,58.0,57.0,29.96,WNW,302,1.0,2.0,96,0.00,,,0.00,,2013-09-11 07:11:00,
2013-09-11 00:23:00,58.0,57.0,29.96,WNW,302,0.0,1.0,96,0.00,,,0.00,,2013-09-11 07:23:00,
2013-09-11 00:32:00,58.0,57.0,29.96,WNW,302,0.0,1.0,96,0.00,,,0.00,,2013-09-11 07:32:00,
2013-09-11 00:42:00,58.0,57.0,29.96,WNW,302,0.0,1.0,96,0.00,,,0.00,,2013-09-11 07:42:00,
2013-09-11 00:52:00,58.0,57.0,29.96,WNW,302,1.0,2.0,96,0.00,,,0.00,,2013-09-11 07:52:00,
2013-09-11 01:11:00,58.0,57.0,29.96,WSW,242,0.0,2.0,96,0.00,,,0.00,,2013-09-11 08:11:00,
2013-09-11 01:22:00,58.0,57.0,29.96,SW,223,1.0,3.0,96,0.00,,,0.00,,2013-09-11 08:22:00,
2013-09-11 01:42:00,58.0,57.0,29.96,WSW,257,0.0,1.0,97,0.00,,,0.00,,2013-09-11 08:42:00,
2013-09-11 01:52:00,58.0,57.0,29.96,WSW,250,1.0,2.0,97,0.00,,,0.00,,2013-09-11 08:52:00,
2013-09-11 02:11:00,58.0,57.0,29.96,WSW,253,1.0,1.0,97,0.00,,,0.00,,2013-09-11 09:11:00,
2013-09-11 02:21:00,58.0,57.0,29.96,SW,226,0.0,1.0,97,0.00,,,0.00,,2013-09-11 09:21:00,
2013-09-11 02:43:00,58.0,57.0,29.96,West,265,0.0,2.0,97,0.00,,,0.00,,2013-09-11 09:43:00,
2013-09-11 02:53:00,58.0,57.0,29.96,West,265,0.0,1.0,97,0.00,,,0.00,,2013-09-11 09:53:00,
2013-09-11 03:12:00,58.0,57.0,29.95,West,276,1.0,2.0,97,0.01,,,0.01,,2013-09-11 10:12:00,
2013-09-11 03:23:00,58.0,57.0,29.95,WSW,248,1.0,3.0,97,0.01,,,0.01,,2013-09-11 10:23:00,
2013-09-11 03:42:00,57.0,56.0,29.96,West,273,1.0,3.0,97,0.01,,,0.01,,2013-09-11 10:42:00,
2013-09-11 03:53:00,57.0,56.0,29.96,West,264,1.0,2.0,97,0.01,,,0.01,,2013-09-11 10:53:00,
2013-09-11 04:12:00,58.0,57.0,29.96,West,266,0.0,2.0,97,0.00,,,0.01,,2013-09-11 11:12:00,
2013-09-11 04:21:00,58.0,57.0,29.96,West,266,0.0,1.0,97,0.00,,,0.01,,2013-09-11 11:21:00,
2013-09-11 04:52:00,58.0,57.0,29.96,SSW,210,1.0,2.0,97,0.00,,,0.01,,2013-09-11 11:52:00,
2013-09-11 05:11:00,58.0,57.0,29.96,West,276,1.0,2.0,98,0.00,,,0.01,,2013-09-11 12:11:00,
2013-09-11 05:21:00,58.0,57.0,29.97,WSW,255,1.0,3.0,98,0.00,,,0.01,,2013-09-11 12:21:00,
2013-09-11 05:52:00,58.0,57.0,29.98,WSW,240,1.0,2.0,98,0.00,,,0.01,,2013-09-11 12:52:00,
2013-09-11 06:12:00,58.0,57.0,29.98,WSW,240,1.0,2.0,98,0.00,,,0.01,,2013-09-11 13:12:00,
2013-09-11 06:21:00,58.0,57.0,29.99,NW,307,1.0,2.0,98,0.00,,,0.01,,2013-09-11 13:21:00,
2013-09-11 06:41:00,58.0,57.0,29.99,WNW,289,1.0,2.0,98,0.00,,,0.01,,2013-09-11 13:41:00,
2013-09-11 06:52:00,58.0,57.0,29.99,SW,228,1.0,2.0,98,0.00,,,0.01,,2013-09-11 13:52:00,
2013-09-11 07:11:00,58.0,57.0,30.00,WSW,241,0.0,1.0,98,0.00,,,0.01,,2013-09-11 14:11:00,
2013-09-11 07:21:00,58.0,57.0,30.00,WSW,240,0.0,2.0,98,0.00,,,0.01,,2013-09-11 14:21:00,
2013-09-11 07:42:00,58.0,57.0,30.01,WNW,289,1.0,3.0,98,0.00,,,0.01,,2013-09-11 14:42:00,
2013-09-11 07:52:00,58.0,57.0,30.01,WSW,248,1.0,3.0,98,0.01,,,0.02,,2013-09-11 14:52:00,
2013-09-11 08:11:00,58.0,57.0,30.01,West,271,1.0,2.0,98,0.01,,,0.02,,2013-09-11 15:11:00,
2013-09-11 08:22:00,58.0,57.0,30.02,WSW,246,1.0,2.0,98,0.01,,,0.02,,2013-09-11 15:22:00,
2013-09-11 08:42:00,58.0,57.0,30.02,WSW,256,1.0,1.0,98,0.01,,,0.02,,2013-09-11 15:42:00,
2013-09-11 08:54:00,58.0,58.0,30.03,WSW,256,1.0,2.0,99,0.00,,,0.02,,2013-09-11 15:54:00,
2013-09-11 09:13:00,58.0,57.0,30.02,WNW,285,1.0,2.0,98,0.00,,,0.02,,2013-09-11 16:13:00,
2013-09-11 09:23:00,58.0,57.0,30.03,West,261,0.0,2.0,98,0.00,,,0.02,,2013-09-11 16:23:00,
2013-09-11 09:43:00,58.0,57.0,30.03,West,261,1.0,1.0,98,0.00,,,0.02,,2013-09-11 16:43:00,
2013-09-11 09:52:00,58.0,57.0,30.03,West,261,1.0,1.0,98,0.00,,,0.02,,2013-09-11 16:52:00,
2013-09-11 10:12:00,59.0,58.0,30.04,SSW,211,1.0,2.0,97,0.00,,,0.02,,2013-09-11 17:12:00,
2013-09-11 10:23:00,59.0,58.0,30.04,SW,236,1.0,3.0,97,0.00,,,0.02,,2013-09-11 17:23:00,
2013-09-11 10:52:00,59.0,58.0,30.05,NW,304,0.0,3.0,96,0.00,,,0.02,,2013-09-11 17:52:00,
2013-09-11 11:12:00,59.0,58.0,30.05,WSW,254,1.0,4.0,96,0.00,,,0.02,,2013-09-11 18:12:00,
2013-09-11 11:21:00,60.0,59.0,30.05,WSW,242,1.0,3.0,95,0.00,,,0.02,,2013-09-11 18:21:00,
2013-09-11 11:52:00,60.0,58.0,30.05,WSW,246,1.0,3.0,94,0.00,,,0.02,,2013-09-11 18:52:00,
2013-09-11 12:11:00,60.0,58.0,30.05,WNW,298,1.0,4.0,93,0.00,,,0.02,,2013-09-11 19:11:00,
2013-09-11 12:21:00,61.0,59.0,30.06,West,272,1.0,2.0,93,0.00,,,0.02,,2013-09-11 19:21:00,
2013-09-11 12:42:00,61.0,59.0,30.06,West,272,1.0,4.0,92,0.00,,,0.02,,2013-09-11 19:42:00,
2013-09-11 12:52:00,61.0,59.0,30.06,SW,220,1.0,4.0,92,0.00,,,0.02,,2013-09-11 19:52:00,
2013-09-11 13:12:00,61.0,59.0,30.05,WNW,282,1.0,3.0,92,0.00,,,0.02,,2013-09-11 20:12:00,
2013-09-11 13:21:00,61.0,59.0,30.06,WNW,290,2.0,5.0,92,0.00,,,0.02,,2013-09-11 20:21:00,
2013-09-11 13:42:00,61.0,58.0,30.06,WNW,303,1.0,3.0,91,0.00,,,0.02,,2013-09-11 20:42:00,
2013-09-11 13:52:00,62.0,59.0,30.05,NW,304,2.0,3.0,89,0.00,,,0.02,,2013-09-11 20:52:00,
2013-09-11 14:02:00,62.0,59.0,30.05,NW,304,2.0,3.0,89,0.00,,,0.02,,2013-09-11 21:02:00,
2013-09-11 14:11:00,62.0,59.0,30.05,NW,304,2.0,3.0,89,0.00,,,0.02,,2013-09-11 21:11:00,
2013-09-11 14:21:00,62.0,59.0,30.05,WNW,294,2.0,7.0,89,0.00,,,0.02,,2013-09-11 21:21:00,
2013-09-11 14:44:00,63.0,59.0,30.04,West,265,1.0,3.0,87,0.00,,,0.02,,2013-09-11 21:44:00,
2013-09-11 14:54:00,64.0,59.0,30.04,WSW,257,2.0,3.0,84,0.00,,,0.02,,2013-09-11 21:54:00,
2013-09-11 15:13:00,64.0,59.0,30.03,SW,234,2.0,4.0,83,0.00,,,0.02,,2013-09-11 22:13:00,
2013-09-11 15:24:00,65.0,59.0,30.03,SW,234,1.0,8.0,81,0.00,,,0.02,,2013-09-11 22:24:00,
2013-09-11 15:54:00,65.0,59.0,30.03,WNW,288,2.0,5.0,82,0.00,,,0.02,,2013-09-11 22:54:00,
2013-09-11 16:12:00,65.0,59.0,30.03,WSW,246,1.0,3.0,81,0.00,,,0.02,,2013-09-11 23:12:00,
2013-09-11 16:22:00,65.0,59.0,30.02,West,261,3.0,5.0,81,0.00,,,0.02,,2013-09-11 23:22:00,
2013-09-11 16:42:00,65.0,59.0,30.02,West,271,1.0,5.0,82,0.00,,,0.02,,2013-09-11 23:42:00,
2013-09-11 16:53:00,65.0,59.0,30.01,WNW,288,2.0,4.0,81,0.00,,,0.02,,2013-09-11 23:53:00,
2013-09-11 17:11:00,65.0,59.0,30.01,WSW,244,2.0,4.0,81,0.00,,,0.02,,2013-09-12 00:11:00,
2013-09-11 17:21:00,65.0,59.0,30.01,WSW,254,1.0,3.0,82,0.00,,,0.02,,2013-09-12 00:21:00,
2013-09-11 17:42:00,65.0,59.0,30.01,WNW,288,1.0,4.0,80,0.00,,,0.02,,2013-09-12 00:42:00,
2013-09-11 17:52:00,65.0,59.0,30.01,NW,308,1.0,5.0,80,0.00,,,0.02,,2013-09-12 00:52:00,
2013-09-11 18:11:00,65.0,59.0,30.01,WSW,242,2.0,5.0,81,0.00,,,0.02,,2013-09-12 01:11:00,
2013-09-11 18:22:00,64.0,59.0,30.01,WNW,294,1.0,5.0,83,0.00,,,0.02,,2013-09-12 01:22:00,
2013-09-11 18:41:00,63.0,58.0,30.01,WSW,256,1.0,5.0,84,0.00,,,0.02,,2013-09-12 01:41:00,
2013-09-11 18:52:00,63.0,58.0,30.01,WSW,246,1.0,3.0,85,0.00,,,0.02,,2013-09-12 01:52:00,
2013-09-11 19:12:00,63.0,59.0,30.01,West,273,1.0,3.0,86,0.00,,,0.02,,2013-09-12 02:12:00,
2013-09-11 19:21:00,62.0,58.0,30.00,West,279,2.0,3.0,87,0.00,,,0.02,,2013-09-12 02:21:00,
2013-09-11 20:11:00,60.0,57.0,30.01,West,267,1.0,3.0,91,0.00,,,0.02,,2013-09-12 03:11:00,
2013-09-11 20:22:00,60.0,57.0,30.01,West,267,1.0,3.0,91,0.00,,,0.02,,2013-09-12 03:22:00,
2013-09-11 20:44:00,60.0,58.0,30.01,West,269,1.0,3.0,92,0.00,,,0.02,,2013-09-12 03:44:00,
2013-09-11 20:55:00,60.0,58.0,30.01,WSW,258,1.0,5.0,93,0.00,,,0.02,,2013-09-12 03:55:00,
2013-09-11 21:14:00,60.0,58.0,30.01,West,272,1.0,2.0,93,0.00,,,0.02,,2013-09-12 04:14:00,
2013-09-11 21:23:00,59.0,57.0,30.01,SW,232,1.0,3.0,93,0.00,,,0.02,,2013-09-12 04:23:00,
2013-09-11 21:43:00,59.0,57.0,30.01,SW,234,1.0,3.0,94,0.00,,,0.02,,2013-09-12 04:43:00,
2013-09-11 21:54:00,59.0,57.0,30.02,WSW,255,1.0,2.0,94,0.00,,,0.02,,2013-09-12 04:54:00,
2013-09-11 22:13:00,59.0,58.0,30.02,West,262,1.0,4.0,95,0.00,,,0.02,,2013-09-12 05:13:00,
2013-09-11 22:22:00,59.0,58.0,30.02,West,269,1.0,3.0,95,0.00,,,0.02,,2013-09-12 05:22:00,
2013-09-11 22:34:00,59.0,58.0,30.02,West,269,1.0,3.0,95,0.00,,,0.02,,2013-09-12 05:34:00,
2013-09-11 22:43:00,59.0,58.0,30.02,West,269,1.0,3.0,95,0.00,,,0.02,,2013-09-12 05:43:00,
2013-09-11 22:52:00,59.0,58.0,30.02,West,259,1.0,3.0,95,0.00,,,0.02,,2013-09-12 05:52:00,
2013-09-11 23:12:00,59.0,58.0,30.02,SW,221,1.0,4.0,96,0.00,,,0.02,,2013-09-12 06:12:00,
2013-09-11 23:21:00,59.0,58.0,30.01,WSW,257,1.0,3.0,96,0.00,,,0.02,,2013-09-12 06:21:00,
2013-09-11 23:42:00,59.0,58.0,30.01,SW,221,1.0,2.0,96,0.00,,,0.02,,2013-09-12 06:42:00,
2013-09-11 23:52:00,59.0,58.0,30.01,West,259,0.0,3.0,96,0.00,,,0.02,,2013-09-12 06:52:00,